Location: Hartman Creek State Park
(44.3257°N, 89.2134°W)
Time: 04:32:24
(UTC-06:00)

Cosmos 2263 Rocket - Visible Passes

Search period start: 07 February 2016 00:00
Search period end: 17 February 2016 00:00
Orbit: 825 x 847 km, 71.0° (Epoch: 07 February)

Date Brightness Start Highest point End Pass type
(mag) Time Alt. Az. Time Alt. Az. Time Alt. Az.
07 Feb 5.2 04:39:39 10° SE 04:42:17 14° E 04:44:54 10° ENE visible
07 Feb 2.2 06:19:48 10° SSW 06:25:23 86° WNW 06:30:59 10° NNE visible
08 Feb 5.2 04:23:31 10° ESE 04:25:40 12° E 04:27:49 10° ENE visible
08 Feb 2.2 06:03:07 10° SSW 06:08:42 88° ESE 06:14:18 10° NNE visible
09 Feb 5.2 04:07:33 10° ESE 04:09:03 11° E 04:10:34 10° E visible
09 Feb 2.3 05:46:28 10° SSW 05:52:01 82° ESE 05:57:37 10° NNE visible
10 Feb 2.3 05:29:48 10° SSW 05:35:21 76° ESE 05:40:56 10° NNE visible
11 Feb 2.4 05:13:09 10° SSW 05:18:41 70° ESE 05:24:14 10° NNE visible
12 Feb 2.5 04:56:31 10° S 05:02:00 64° ESE 05:07:31 10° NNE visible
13 Feb 2.6 04:40:52 15° S 04:45:20 59° ESE 04:50:49 10° NNE visible
13 Feb 3.2 06:25:13 10° WSW 06:29:41 24° NW 06:34:10 10° N visible
14 Feb 2.7 04:26:03 29° S 04:28:40 54° ESE 04:34:06 10° NNE visible
14 Feb 3.2 06:08:20 10° WSW 06:12:56 26° NW 06:17:34 10° N visible
15 Feb 2.9 04:10:49 43° SSE 04:12:01 50° ESE 04:17:23 10° NE visible
15 Feb 3.1 05:52:35 15° WSW 05:56:12 28° NW 06:00:57 10° N visible
16 Feb 3.0 03:55:21 46° ESE 03:55:21 46° ESE 04:00:39 10° NE visible
16 Feb 3.0 05:37:05 22° W 05:39:28 29° NW 05:44:20 10° N visible
